Location: Newark
(54.6833°N, 25.2833°E)
Time: 16:39:50
(UTC+00:00)

Altair - Pass Details

Date: 20 November 2019
Orbit: 1502 x 1682 km, 47.2° (Epoch: 08 December)

Event Time Altitude Azimuth Distance (km) Brightness Sun altitude
Rises 05:43:18 0° 276° (W) 4,641 9.4 -2.7°
Reaches altitude 10° 05:46:28 10° 270° (W) 3,666 9.0 -2.3°
Maximum altitude 05:54:59 44° 202° (SSW) 2,008 8.3 -1.2°
Drops below altitude 10° 06:03:44 10° 135° (SE) 3,755 11.6 -0.2°
Sets 06:07:01 0° 129° (SE) 4,763 13.8 0.2°
